Wind_Speed
25 27 26 27 27 27 29 30 30 28 26 25 26 26 25 27 30 29 27 26 28 27 23 16 11 11 12 14 18 19 18 18 18 17 16 15 13 12 11 11 11 10 8 7 5 3 3 4 5 6 7 7 6 5 3 2 2 3 4 4 4 5 6 7 7 7 7 8 8 8 8 8 7 8 8 9 9 8 7 5 4 2 1 1 1
26 28 27 27 26 27 30 30 29 27 26 25 26 26 27 28 27 25 24 25 24 21 15 10 10 11 13 16 19 18 18 19 18 18 18 17 15 14 13 11 11 10 9 8 7 4 3 3 4 4 5 5 4 4 3 2 1 1 2 2 2 3 4 5 6 6 6 6 7 7 8 8 8 8 9 9 10 10 9 7 5 4 3 2 2
29 30 30 28 26 30 31 30 28 26 25 24 25 26 25 24 23 23 23 22 19 15 10 9 9 10 13 17 18 17 19 20 19 19 20 20 19 18 17 15 14 14 13 11 10 7 5 4 4 4 4 4 3 3 3 3 2 2 1 1 1 1 2 3 3 4 5 5 5 5 6 7 7 8 9 9 10 11 10 8 7 6 4 3 3
31 31 31 30 29 31 31 28 26 25 24 24 24 24 23 22 21 21 19 16 13 9 8 8 8 11 15 18 18 16 18 20 20 19 21 22 22 21 21 21 20 19 18 17 14 12 9 6 5 4 4 2 2 2 3 3 4 4 4 4 3 1 1 1 0 1 3 3 4 5 5 5 6 7 8 9 10 11 10 9 8 7 5 4 4
33 33 32 31 31 31 29 27 25 24 24 24 24 23 21 20 19 17 14 12 9 7 7 7 9 12 16 19 17 15 18 20 20 19 21 22 23 23 23 24 24 23 23 22 20 18 15 12 8 5 3 1 1 2 3 4 5 6 6 7 6 5 3 3 2 1 2 3 3 4 6 6 5 5 7 8 9 10 11 10 9 8 6 5 5
34 34 33 31 31 30 28 26 25 25 24 23 23 21 20 18 15 12 11 9 7 6 7 7 10 14 18 18 15 15 17 19 20 19 21 23 23 24 25 25 25 25 25 25 24 23 21 19 16 13 9 6 3 3 4 5 7 8 9 9 9 8 7 5 4 2 2 2 4 2 3 5 4 3 6 7 8 9 10 10 9 9 8 7 6
34 34 32 30 30 28 27 26 25 24 24 23 21 20 17 14 11 10 8 6 5 6 7 8 12 16 18 17 14 14 16 18 19 18 21 23 24 25 25 25 25 26 25 25 24 23 22 21 20 18 15 13 10 7 6 4 4 6 9 11 11 10 9 7 6 5 3 1 3 2 2 5 5 1 5 7 7 7 8 9 10 10 10 9 6
34 33 30 29 28 27 26 26 25 25 24 22 20 17 14 11 9 8 6 5 5 6 7 9 14 17 17 15 14 14 15 17 17 18 21 24 26 27 26 26 26 26 25 24 24 23 23 21 20 19 17 15 13 11 9 7 5 4 6 9 11 11 10 8 6 5 5 3 1 2 3 5 5 1 6 6 6 6 7 8 9 10 10 10 8
33 31 28 28 27 26 26 25 25 25 23 21 17 14 11 9 7 6 5 4 6 6 8 11 16 18 17 15 14 15 15 16 17 18 21 24 26 27 27 27 27 27 27 26 26 25 25 24 23 22 20 18 16 13 11 8 6 4 5 7 10 12 11 9 7 6 6 3 1 1 2 3 4 1 6 5 5 5 6 8 9 9 10 11 10
33 29 27 26 26 26 26 25 25 24 22 18 13 11 9 7 6 5 4 5 6 7 9 13 17 17 16 15 15 16 16 17 18 20 22 24 26 26 26 26 27 27 27 27 26 26 26 25 25 24 24 23 21 19 15 12 7 4 4 5 7 10 12 11 8 6 4 1 1 1 3 4 3 1 4 5 4 5 5 7 8 8 9 11 10
31 27 25 25 26 26 25 25 24 22 19 14 10 9 7 6 6 4 4 6 6 7 11 15 17 17 16 16 17 17 17 18 20 21 22 24 24 25 24 25 25 25 25 25 25 25 26 26 26 26 26 26 26 24 21 17 11 5 1 2 4 6 9 11 10 6 4 2 1 0 4 5 3 2 5 6 5 5 5 6 6 7 8 10 10
28 25 24 25 26 25 24 24 23 20 15 10 9 7 6 6 5 4 6 7 7 9 13 16 17 17 16 17 18 18 18 20 21 22 22 23 24 24 24 24 24 25 25 25 25 25 25 26 26 26 27 27 28 27 26 22 17 12 9 7 6 7 9 11 12 9 7 4 2 3 3 3 2 1 8 8 6 6 5 5 5 5 7 8 9
26 24 23 24 25 24 23 23 21 17 11 9 8 5 6 6 5 5 7 7 7 10 14 17 17 17 17 18 18 18 19 21 21 22 22 23 24 24 25 25 25 25 25 25 25 25 25 25 25 26 26 27 28 28 28 27 25 21 17 14 12 10 9 10 12 10 9 6 6 5 3 2 2 5 8 7 7 7 5 5 5 4 5 6 8
25 23 23 24 24 23 23 22 18 13 9 7 6 6 7 6 6 6 7 7 8 10 14 17 17 17 18 18 18 19 20 21 21 22 22 23 24 24 25 25 25 25 26 25 25 24 24 24 25 25 26 27 28 29 29 30 30 27 24 22 18 15 11 9 8 10 10 7 6 4 3 2 2 5 6 6 6 7 6 5 5 4 4 5 6
23 22 22 23 23 22 22 20 15 10 7 6 5 6 7 6 7 7 7 7 7 11 15 17 17 17 18 18 18 19 20 21 21 22 22 23 24 24 24 24 25 25 26 26 24 24 23 24 24 25 26 27 28 30 31 31 31 29 27 24 22 19 15 12 9 8 11 8 4 1 2 4 3 3 5 5 4 5 6 5 5 4 4 3 4
21 20 21 21 21 21 20 17 11 8 6 4 5 6 6 7 7 8 7 6 7 12 15 17 17 17 17 17 18 20 20 21 21 21 22 23 24 24 24 24 24 24 25 26 25 24 23 24 24 25 27 28 29 30 31 32 31 29 27 24 21 18 15 13 13 10 9 9 5 1 1 3 4 3 4 5 5 5 5 5 5 4 3 2 2
20 19 20 20 20 20 18 13 8 6 4 4 6 6 7 7 8 8 7 6 8 12 15 17 17 17 17 18 19 20 20 20 20 21 21 22 23 23 24 24 24 24 25 26 25 24 24 24 25 26 26 27 28 30 31 31 30 28 28 26 23 19 15 13 12 12 10 8 4 3 3 1 0 1 3 3 4 4 4 4 4 3 2 2 1
18 18 19 19 19 18 15 9 6 5 2 5 6 7 7 8 9 8 6 6 9 11 14 16 16 16 17 18 18 19 18 19 20 20 21 21 22 23 23 23 24 23 24 25 24 23 23 23 25 26 26 27 28 29 29 30 29 27 26 25 24 21 19 17 14 12 10 7 4 4 3 4 4 3 2 3 3 3 4 4 3 3 2 1 1
17 17 18 18 17 16 11 6 5 3 3 6 7 7 8 9 9 8 6 6 9 11 14 15 15 16 17 17 17 17 17 18 19 20 21 21 22 23 23 23 23 23 24 25 24 22 22 23 24 25 26 27 28 28 28 28 28 27 26 23 22 21 20 19 18 16 13 11 9 7 6 5 5 4 3 3 3 3 3 3 4 4 3 2 2
16 16 17 17 15 12 8 5 4 2 4 6 7 8 9 10 8 6 5 6 9 11 13 14 14 15 16 16 16 16 16 17 18 19 20 21 21 23 23 22 22 23 24 24 23 22 22 22 24 25 25 26 28 28 28 28 27 27 26 24 22 22 21 19 18 19 18 16 15 13 11 10 8 7 6 5 4 3 3 3 3 3 4 3 2
16 16 17 16 13 9 5 4 2 3 5 7 8 9 10 9 7 6 5 6 9 11 12 13 13 14 14 15 15 15 15 16 17 18 20 20 20 22 22 21 21 22 23 24 23 22 22 23 24 24 26 26 27 28 28 28 28 27 27 26 23 20 21 20 18 18 18 17 17 17 16 14 13 11 10 9 8 6 4 3 3 3 4 4 3
16 16 16 14 10 6 4 3 1 5 6 8 9 10 10 8 6 6 5 6 9 10 11 12 13 13 13 13 13 13 13 14 16 17 19 20 20 20 21 21 21 22 23 23 22 22 23 24 24 25 27 27 28 28 28 29 29 28 28 28 26 22 22 22 19 18 16 16 16 16 15 14 14 14 14 13 11 10 7 5 4 3 3 3 3
16 15 14 12 8 5 4 1 4 6 7 9 10 10 9 7 6 5 5 7 9 9 10 11 12 12 11 11 11 12 12 13 14 15 18 19 19 19 20 21 22 23 24 24 23 23 23 24 24 24 26 28 28 27 28 29 28 29 29 28 28 26 26 24 22 20 17 16 15 15 16 15 15 15 15 15 14 12 11 9 7 5 4 3 3
15 14 13 9 5 4 3 3 6 7 9 10 10 10 8 6 5 4 5 7 8 9 10 10 11 11 10 10 11 12 13 13 13 15 16 17 17 18 19 21 22 25 25 26 26 25 24 25 24 24 25 26 26 27 28 28 27 28 28 28 28 28 27 26 25 24 21 19 16 16 16 16 16 16 16 16 16 15 14 12 10 9 8 7 5
14 13 10 7 5 4 3 6 8 9 10 10 10 9 6 5 4 4 6 7 8 8 9 10 10 10 9 9 10 11 13 13 13 13 14 15 16 18 20 21 22 25 26 27 27 27 26 25 25 25 25 26 26 27 28 27 27 28 28 28 28 28 28 27 27 26 25 23 21 20 19 19 19 18 18 18 17 17 16 15 13 12 10 9 8
13 12 9 6 5 4 5 8 9 10 11 10 9 7 5 4 4 5 6 7 7 8 9 9 9 9 8 9 9 11 12 13 12 12 13 16 18 20 22 22 23 25 26 27 27 28 27 26 25 25 25 26 26 27 27 28 28 28 27 27 27 28 27 27 26 26 25 25 24 24 24 24 23 23 22 20 19 18 17 16 16 15 13 11 11
13 11 7 6 6 5 7 10 11 12 12 10 9 6 4 4 4 5 6 7 7 8 9 9 9 8 7 7 8 10 11 12 13 14 16 19 21 22 23 24 25 26 27 27 28 28 28 28 27 26 26 26 27 28 28 29 29 28 28 28 28 28 27 27 26 26 26 26 25 26 27 27 27 26 24 23 22 20 19 17 16 16 15 14 14
12 9 7 7 6 6 10 12 12 13 12 10 8 6 4 4 5 6 6 7 7 8 9 9 9 8 7 8 9 10 11 13 15 16 18 21 22 23 25 26 27 27 27 27 29 29 29 29 29 28 28 28 29 30 30 30 30 30 30 30 29 28 28 28 27 27 27 27 27 27 28 28 28 27 25 25 24 23 21 18 16 15 14 14 14
11 9 8 8 7 9 12 13 14 13 12 10 8 5 4 5 6 6 7 7 8 9 9 9 10 11 11 11 11 12 14 16 17 17 19 20 21 23 25 27 28 28 28 28 29 30 31 31 30 30 30 31 32 32 32 32 32 32 32 32 30 29 29 29 28 28 28 28 28 28 28 28 28 26 25 25 26 26 24 20 16 13 12 11 12
10 10 10 8 9 12 13 14 15 14 12 10 7 5 6 6 7 7 8 8 8 9 10 11 13 15 15 16 16 16 18 18 18 18 19 20 22 24 27 29 30 30 31 32 34 34 35 34 32 30 31 33 34 34 34 34 34 34 33 33 32 31 30 29 29 29 29 29 30 30 30 29 28 27 27 28 28 28 28 25 21 16 12 10 11
10 11 10 9 11 14 15 16 15 14 12 10 7 6 6 7 8 8 8 9 10 11 13 14 16 18 18 18 19 20 21 22 21 21 21 23 24 26 28 30 32 32 33 35 36 36 36 35 33 33 34 35 36 36 36 35 35 34 33 33 33 32 32 32 32 32 33 34 35 35 35 34 34 34 34 35 35 34 33 32 29 24 20 17 16
11 12 10 11 13 16 17 17 16 13 12 9 8 7 7 8 8 9 9 10 11 13 15 17 19 20 19 19 20 22 23 24 24 24 23 25 26 28 29 30 32 32 34 35 36 36 35 35 35 36 37 37 37 37 36 36 36 34 34 35 35 35 36 38 38 39 40 41 43 44 44 44 44 45 45 45 44 43 42 40 38 35 32 30 27
12 12 10 12 15 18 18 18 17 14 11 9 9 9 8 9 9 10 10 11 13 14 17 19 20 21 21 21 21 23 24 25 26 26 26 26 27 28 29 30 31 32 33 34 35 35 34 35 36 37 37 37 37 37 37 36 36 35 36 37 39 41 42 44 45 45 46 47 48 50 51 51 51 51 51 51 51 50 49 48 46 44 42 40 38
13 11 10 14 17 19 19 19 17 14 11 10 10 9 9 9 10 10 11 13 15 17 18 20 21 21 21 22 23 25 25 25 25 25 26 26 25 26 28 29 29 29 30 32 32 32 33 34 35 36 36 37 36 37 37 36 36 37 38 40 42 44 46 47 47 48 48 49 50 51 52 53 53 53 53 53 53 53 52 51 50 49 47 46 45
13 11 11 15 19 20 20 19 17 14 11 10 10 10 9 9 10 11 13 16 18 19 20 21 21 21 22 22 23 24 24 25 25 24 23 23 22 23 25 25 26 27 27 29 30 31 32 33 34 34 35 35 35 36 36 37 37 37 38 40 42 44 45 45 45 46 47 47 48 49 49 50 50 50 50 51 51 51 51 51 51 50 50 48 47
13 11 12 17 20 21 21 19 17 14 12 11 11 10 9 9 10 11 14 17 19 20 21 21 21 21 21 21 21 21 21 22 22 23 23 23 22 23 24 25 27 28 28 28 30 30 31 32 32 32 32 33 33 33 34 35 36 37 37 37 38 39 39 40 40 40 41 42 43 44 45 45 46 46 46 46 47 47 47 48 49 49 50 49 48
13 11 14 19 21 22 21 19 17 14 13 12 12 11 10 10 10 12 15 18 20 21 21 21 21 21 20 20 20 21 21 21 21 23 24 23 24 24 25 26 27 27 28 28 30 31 31 31 30 30 30 30 30 30 30 30 31 31 31 31 31 32 32 33 33 34 35 36 37 38 39 40 40 41 41 42 43 43 43 44 45 46 48 49 49
12 12 16 20 23 23 22 20 18 15 14 14 13 11 10 10 11 13 16 19 20 21 21 20 19 19 19 20 20 21 22 21 21 22 22 22 23 23 23 24 24 25 26 27 29 30 30 30 30 28 27 27 27 26 26 25 26 26 26 26 26 26 27 27 27 28 29 30 31 32 33 33 34 35 36 37 38 39 40 40 41 42 44 46 48
12 14 18 22 24 24 22 20 18 16 15 15 14 12 11 11 12 14 16 18 20 20 19 18 17 16 17 18 19 20 20 19 19 19 19 20 20 21 21 22 22 24 25 26 27 28 28 29 29 28 26 25 24 23 23 22 22 21 22 22 21 22 22 22 23 24 24 24 25 26 27 28 29 30 32 33 34 36 37 37 38 38 39 41 44
13 15 20 23 24 24 22 20 18 17 17 16 15 13 12 12 13 14 16 17 19 18 17 16 15 15 16 17 18 18 18 18 17 17 18 18 19 19 21 21 21 22 23 25 25 25 26 27 27 26 26 26 25 24 22 21 19 18 17 17 17 18 18 18 19 19 20 20 20 21 23 24 25 27 28 29 31 33 34 35 35 36 36 37 39
13 16 21 24 24 24 22 20 19 17 17 17 16 14 13 13 14 14 16 16 17 17 15 14 14 14 15 16 16 16 16 16 15 15 15 16 16 18 19 20 20 19 21 23 24 23 23 24 24 24 25 25 25 24 23 22 20 18 15 13 12 12 14 14 15 15 15 16 17 18 19 20 21 23 25 26 28 29 31 32 33 34 34 35 36
14 17 22 24 24 24 22 21 19 17 18 18 17 15 13 13 14 14 15 15 15 15 13 13 13 14 14 15 15 15 15 14 14 14 14 15 15 16 17 17 18 17 18 20 21 21 21 22 22 22 23 23 23 23 23 22 22 21 19 15 12 9 8 8 8 9 10 11 13 14 15 17 18 20 22 24 25 26 28 30 31 32 32 33 34
15 19 22 24 25 24 23 21 20 18 18 18 17 15 14 13 13 14 14 14 14 13 12 12 11 12 13 13 13 13 13 13 13 13 13 13 13 14 15 16 16 16 16 17 18 18 18 19 19 20 20 20 20 21 22 22 23 23 23 21 17 13 10 8 7 6 5 6 7 9 11 13 15 17 20 22 23 24 26 27 29 30 31 32 34
17 20 23 24 24 24 23 22 20 19 18 18 17 16 15 14 14 14 13 13 13 12 11 10 11 11 11 11 12 12 12 11 11 11 11 12 12 12 13 13 14 14 14 14 15 16 16 16 17 17 18 18 19 19 20 21 23 23 24 24 22 18 15 13 11 8 6 4 3 5 7 10 13 16 19 20 21 23 25 26 27 29 29 31 32
17 21 23 23 24 24 23 22 21 18 17 18 18 17 16 15 14 13 12 12 11 11 10 10 10 11 10 10 10 11 11 10 10 10 10 11 11 10 11 11 12 12 12 12 13 13 14 14 14 14 16 17 18 18 19 20 21 23 24 25 24 22 19 17 15 12 9 5 5 5 7 10 13 16 18 20 21 22 23 25 27 28 28 30 31
18 22 24 24 25 24 23 23 21 19 18 18 18 17 16 15 15 14 13 12 11 10 10 10 10 10 10 10 10 10 10 9 9 9 9 9 9 8 8 9 9 10 11 11 11 11 12 12 12 13 14 15 16 17 18 19 20 21 23 25 25 24 22 20 18 16 13 9 6 7 9 11 14 17 20 22 22 23 23 24 26 27 28 29 30
19 23 24 26 27 26 25 24 22 21 20 19 18 18 17 16 15 14 13 12 11 11 10 10 10 10 10 10 10 10 9 9 9 9 9 8 8 7 6 7 8 8 9 9 10 10 11 11 12 12 13 14 15 16 17 17 18 20 22 24 25 25 24 22 21 18 16 13 10 9 10 12 15 18 20 22 21 21 22 23 25 26 27 29 30
21 24 26 27 28 27 26 25 23 22 20 20 19 18 17 16 15 14 14 13 12 12 11 11 10 10 10 10 10 9 9 10 9 8 8 7 6 6 5 6 6 7 7 8 9 9 10 11 12 12 13 13 14 15 16 16 17 18 20 22 24 25 26 24 22 19 17 15 14 12 12 13 15 17 19 20 20 21 22 24 26 27 28 29 30
23 26 28 28 28 28 27 26 24 23 22 21 20 19 18 17 16 15 14 14 13 12 12 11 11 11 10 10 10 9 9 9 8 7 7 6 5 4 4 4 4 5 6 8 9 9 10 11 12 12 13 13 14 15 16 16 17 17 18 19 21 23 25 25 23 20 18 17 15 14 13 14 15 17 18 19 20 21 22 24 26 28 29 30 31
25 26 28 30 30 30 29 27 26 24 23 22 21 20 19 18 17 16 15 14 13 13 12 12 11 10 10 9 9 9 8 8 7 6 5 4 4 3 2 2 3 4 5 7 8 10 10 10 11 12 12 13 14 15 16 17 17 18 18 18 19 20 22 24 24 22 20 18 17 16 15 15 16 16 18 19 21 22 23 25 27 29 30 31 32
27 28 30 32 33 32 31 29 27 26 24 23 22 21 20 18 17 16 15 14 13 12 12 12 11 10 10 9 8 8 8 7 6 6 5 4 3 2 1 0 1 2 4 6 9 11 10 10 11 11 12 13 14 14 16 17 17 18 18 18 18 18 19 21 22 22 21 19 18 17 16 16 16 17 18 19 21 22 23 25 26 28 30 31 32
Wind_Direction
322 327 327 323 320 319 319 319 318 315 313 309 311 311 308 304 305 310 319 324 326 329 330 339 5 24 25 20 14 15 19 18 16 16 16 18 22 25 29 37 45 53 59 59 61 81 130 153 160 161 164 165 162 158 151 134 114 106 104 101 90 81 76 71 68 69 71 69 68 65 61 61 63 65 66 66 67 68 67 65 57 42 34 25 30
326 330 329 327 324 323 322 320 319 316 314 310 310 310 307 305 310 319 325 328 330 331 337 5 28 29 24 18 17 22 25 22 22 23 23 26 31 36 40 39 35 36 37 38 42 58 85 107 137 147 156 165 168 167 169 175 167 153 118 113 100 90 81 70 67 61 56 61 66 62 60 56 57 63 64 64 67 69 68 68 63 54 48 49 47
327 330 332 331 326 324 322 320 319 317 316 315 314 313 310 313 320 327 331 333 333 336 359 30 34 28 20 18 21 29 29 26 27 28 31 35 40 46 52 53 51 49 49 48 48 58 69 76 99 115 134 160 177 190 208 216 226 234 235 213 131 96 78 67 73 56 45 51 50 47 56 59 56 61 65 63 63 67 67 68 66 60 53 54 54
328 330 330 329 325 323 323 321 321 321 321 320 318 318 319 324 329 334 338 338 338 351 23 37 33 22 18 20 25 34 33 31 31 34 38 41 47 52 58 62 64 65 63 61 58 60 66 74 89 100 108 128 169 218 233 241 250 247 249 244 248 269 319 356 152 63 55 57 34 24 32 49 61 58 64 64 61 64 64 66 67 64 55 59 64
327 328 326 326 324 323 323 323 324 325 326 325 323 325 327 332 338 343 346 344 349 14 36 38 27 19 19 21 28 36 37 35 33 37 42 45 50 56 61 64 65 66 65 64 64 64 65 68 73 78 79 76 289 276 268 265 264 260 256 248 248 246 252 267 238 131 100 105 72 38 19 27 51 58 63 66 62 61 61 63 64 61 54 60 75
324 324 323 323 323 322 322 323 326 329 329 328 328 331 336 342 348 355 353 352 6 29 39 33 24 19 20 22 31 39 40 39 37 40 45 48 53 58 61 63 63 64 64 63 64 65 66 66 66 65 61 51 27 340 301 281 271 263 256 251 248 239 239 252 250 226 186 129 92 62 20 15 8 54 73 69 65 60 60 61 59 54 46 50 74
321 321 321 322 322 321 322 324 328 331 332 331 334 339 344 352 1 4 359 3 24 36 34 27 23 19 20 24 35 42 45 43 42 45 49 54 57 60 61 63 63 63 63 63 63 64 65 66 65 63 59 54 46 37 19 349 306 273 258 251 245 239 235 242 245 234 228 205 72 35 11 4 338 63 94 79 73 59 59 60 58 52 41 41 58
318 318 320 322 321 320 323 327 330 334 334 336 340 345 353 4 13 11 4 19 39 39 31 25 22 19 21 28 40 49 50 48 49 51 53 58 60 61 62 63 63 63 64 63 63 62 62 62 61 58 55 50 44 38 29 18 355 311 270 253 243 237 232 231 232 231 237 246 48 7 9 8 335 133 110 82 81 63 59 59 58 53 40 36 43
316 316 318 321 320 321 324 327 332 336 337 340 345 352 2 14 24 16 13 38 48 40 28 26 21 21 25 34 46 54 55 54 56 56 57 59 60 61 60 60 60 60 61 60 60 58 58 57 56 54 51 47 41 34 26 19 358 323 280 256 242 231 223 220 215 226 233 235 58 330 344 21 349 106 110 70 70 63 59 59 55 51 40 35 37
314 314 316 318 320 321 324 328 334 337 340 344 351 360 9 26 33 22 32 55 52 39 30 26 23 25 32 42 53 58 59 59 60 59 58 59 59 58 57 56 56 56 57 57 56 56 55 53 51 49 46 43 38 32 26 20 7 337 280 247 233 224 214 210 203 208 211 147 78 244 338 39 8 313 115 76 64 55 52 58 51 46 41 37 37
312 312 316 318 320 321 324 330 336 339 344 350 358 6 21 44 40 34 57 65 54 38 32 27 27 32 40 51 59 60 61 61 63 62 61 59 58 57 55 54 53 53 52 53 52 51 50 48 46 43 41 39 36 32 28 23 23 34 72 168 183 191 192 195 187 177 162 147 184 213 356 22 345 305 101 75 62 54 47 54 48 46 42 38 38
311 312 315 318 319 321 326 332 337 342 348 357 5 15 45 56 46 56 74 69 52 39 32 31 34 39 48 59 62 63 63 63 65 65 64 61 59 57 55 53 51 49 48 48 47 47 46 44 42 40 38 36 36 34 32 35 46 63 83 101 122 139 150 163 165 157 159 164 96 77 24 12 314 78 86 66 53 51 43 46 43 42 41 39 39
309 311 314 317 318 322 328 334 339 347 355 3 12 38 64 60 61 79 82 68 50 39 34 37 42 47 58 64 65 65 65 66 68 66 65 62 59 56 53 52 49 47 45 44 43 43 43 42 41 39 37 37 38 38 39 47 59 71 81 88 94 104 118 142 158 161 163 153 90 93 115 82 42 67 69 55 47 43 35 35 37 35 37 41 40
307 310 313 316 318 322 329 336 343 352 0 7 27 68 70 66 81 91 83 66 48 37 38 44 48 56 66 69 68 69 69 69 69 67 64 61 58 55 52 50 48 46 43 42 41 41 41 41 41 40 38 38 39 42 45 51 60 68 75 77 80 85 95 116 143 159 162 150 107 108 138 121 31 30 26 25 32 32 26 22 27 28 28 37 40
305 309 312 315 318 322 331 339 347 356 3 17 61 80 74 81 98 98 83 65 46 39 45 50 55 64 71 73 73 73 73 72 69 66 62 59 56 53 51 48 47 46 43 41 40 41 41 41 41 41 39 40 41 45 49 52 58 64 69 71 72 75 78 81 91 135 164 163 137 144 215 235 276 326 333 344 1 13 14 11 12 13 20 26 33
304 307 310 314 318 324 334 341 350 360 6 42 88 87 83 98 109 100 86 68 45 44 51 57 63 71 75 76 77 78 76 72 67 63 59 57 53 50 48 47 47 45 42 39 40 41 41 42 41 41 40 40 42 45 49 52 56 62 68 70 72 74 70 63 68 95 143 164 153 124 183 227 255 285 303 318 335 346 350 354 358 5 24 20 15
304 306 309 314 318 326 335 342 352 360 15 83 101 95 98 115 116 102 89 67 47 50 57 62 71 77 79 79 81 81 76 70 65 60 56 54 49 46 45 44 44 43 41 38 39 40 40 41 40 40 40 41 43 44 48 51 55 60 66 69 71 72 66 57 61 74 102 137 129 55 58 91 101 295 310 331 341 350 353 354 357 11 34 36 10
303 304 308 312 318 327 335 341 350 359 49 107 107 104 116 128 119 103 89 62 51 58 63 68 77 82 83 82 83 81 76 70 64 57 52 49 46 43 41 40 40 40 37 36 39 41 41 40 39 40 40 42 43 45 47 51 54 58 64 67 65 63 62 61 60 63 74 89 77 54 68 79 75 63 47 34 24 24 21 22 26 29 41 70 78
299 300 305 310 318 327 333 337 348 11 106 117 111 117 132 132 119 104 86 61 56 64 70 74 82 87 87 86 86 82 76 70 63 56 49 45 42 39 37 37 37 36 34 33 37 41 43 42 41 40 40 42 43 44 47 49 52 55 61 65 64 59 59 62 63 63 63 60 56 56 67 75 67 55 48 36 23 18 19 26 31 38 45 77 118
294 296 301 309 319 325 327 330 346 57 125 119 119 131 139 132 119 106 84 62 63 71 76 79 85 91 90 89 88 83 76 68 61 54 46 41 37 34 33 35 35 34 32 32 36 40 43 44 43 40 41 41 42 43 45 47 49 52 56 61 63 59 55 59 62 62 62 61 62 64 70 75 71 60 49 36 17 359 349 354 4 28 39 48 86
289 292 299 307 318 321 314 320 359 127 132 121 129 141 142 134 122 104 78 65 70 78 83 83 87 93 94 92 90 84 74 63 55 49 42 38 34 31 31 33 33 31 30 32 36 40 42 45 45 44 43 42 43 43 44 46 46 48 52 55 61 59 52 56 59 58 60 63 66 68 71 73 74 71 64 57 47 35 14 357 354 10 28 34 43
284 289 296 305 313 310 297 312 116 141 132 129 139 148 148 138 121 98 74 69 75 83 87 87 88 92 95 93 90 84 73 59 50 43 38 36 34 33 32 33 33 30 31 34 38 42 42 46 48 47 45 44 45 44 44 46 45 46 48 52 57 57 53 56 56 56 59 62 65 66 65 66 66 64 59 54 49 46 39 29 23 21 21 26 31
281 284 291 301 304 287 282 278 148 145 135 139 149 157 155 139 115 93 76 75 79 86 90 90 89 91 93 91 85 78 67 56 47 39 34 35 36 35 33 34 36 35 37 39 42 46 46 47 48 48 47 46 47 47 46 47 46 46 46 48 52 53 54 56 56 57 59 61 63 62 60 56 52 48 46 44 43 44 40 33 29 27 24 15 14
276 280 288 294 283 265 265 163 154 149 142 150 159 165 159 135 111 88 80 81 81 85 89 94 93 91 91 87 79 71 62 52 46 39 32 34 40 39 38 39 41 43 45 46 48 51 51 49 48 49 49 48 47 47 47 47 47 47 46 46 47 49 51 53 55 57 59 59 60 58 53 47 40 36 37 40 41 40 40 36 31 29 27 23 17
269 275 284 280 251 249 220 162 160 152 149 158 166 168 155 127 106 88 88 87 85 86 89 98 98 94 91 83 73 64 55 44 43 43 36 41 49 48 46 45 46 49 52 53 53 55 54 52 50 50 50 47 47 47 47 47 48 47 47 46 46 46 47 49 52 54 56 58 58 57 54 49 46 42 41 42 42 39 39 40 39 37 36 34 33
264 272 272 250 232 232 185 165 165 155 154 165 171 168 150 126 102 96 96 93 90 86 88 97 101 99 94 83 68 55 48 45 50 55 53 58 60 57 54 54 54 55 57 58 57 57 57 57 54 53 52 48 48 49 49 49 49 49 48 48 47 46 47 47 49 50 52 53 55 55 54 53 51 49 48 47 46 43 40 40 40 42 46 47 48
260 265 252 227 223 210 176 168 167 160 160 168 170 165 146 126 109 107 105 99 93 86 85 92 99 102 96 80 63 53 53 61 66 67 67 68 68 65 63 63 63 62 63 64 63 61 61 60 59 57 55 52 52 53 53 53 53 52 52 51 50 49 49 49 49 49 49 50 51 52 52 51 50 50 50 50 49 47 44 41 40 45 53 58 59
252 251 227 211 210 189 174 173 169 163 164 168 168 164 149 132 124 119 111 104 97 89 85 87 95 99 97 83 70 67 72 80 79 76 75 73 73 72 69 68 67 67 67 67 64 63 63 63 63 61 59 57 56 56 57 57 57 56 56 55 53 51 51 50 50 49 49 49 50 51 51 51 51 50 51 52 51 50 47 45 44 47 56 62 60
245 232 207 200 199 179 177 177 170 166 167 167 167 162 153 139 133 127 115 108 102 95 89 89 94 99 99 93 88 87 88 90 88 83 79 77 77 76 73 70 70 70 68 67 65 65 66 66 65 64 63 62 60 60 60 60 60 59 58 57 55 53 52 52 52 51 51 50 50 51 51 51 51 51 51 52 53 52 50 50 50 51 54 59 51
240 217 197 194 190 176 178 178 170 168 168 168 169 159 152 144 139 130 118 113 107 101 97 97 100 102 101 100 97 94 93 95 95 91 85 84 84 80 77 75 74 73 71 68 66 66 65 65 66 66 65 64 63 61 61 60 59 58 58 57 55 54 53 52 53 53 53 53 53 54 54 54 54 53 52 52 53 53 53 53 54 53 48 43 29
228 206 192 191 183 175 178 176 170 172 169 168 166 157 154 148 141 132 123 120 113 107 105 106 107 106 106 105 101 96 94 96 97 97 94 91 89 85 82 80 77 73 71 68 66 65 65 66 67 66 65 63 62 60 59 57 57 56 56 57 57 56 55 56 57 58 59 60 61 62 62 61 60 59 58 57 57 56 55 55 54 53 49 41 31
211 198 189 187 180 175 178 174 172 175 171 166 161 156 157 151 141 135 130 125 118 114 113 114 113 111 110 108 103 99 96 95 96 97 96 91 88 87 84 81 77 74 71 69 67 65 65 66 65 64 63 62 60 58 57 56 56 56 57 60 62 62 62 63 65 66 68 69 70 71 70 69 67 66 65 64 63 62 60 58 57 55 52 48 43
196 191 189 185 177 177 178 173 172 177 173 164 158 159 159 151 142 139 136 130 124 120 119 120 118 115 111 109 106 103 99 96 95 94 93 91 88 87 84 81 79 77 73 71 68 66 65 65 64 63 62 62 61 60 59 59 60 62 65 68 71 72 71 71 73 74 75 76 76 76 75 74 72 72 71 70 69 67 66 64 62 60 58 55 52
186 187 187 184 177 179 178 172 173 177 174 162 157 162 159 151 144 142 140 134 129 125 125 124 121 117 114 112 110 105 101 98 97 96 96 94 90 87 86 83 79 76 72 69 67 66 65 65 64 63 63 64 64 65 65 66 68 71 73 77 79 80 79 79 79 80 80 81 80 79 77 76 75 73 72 71 70 70 69 67 66 64 62 61 59
180 184 185 182 177 180 178 173 174 177 172 161 158 163 159 150 145 145 143 138 133 130 130 128 124 121 118 117 115 109 102 99 99 100 100 97 92 88 85 80 75 71 68 67 67 67 66 66 65 65 66 68 70 71 72 74 76 78 80 83 84 84 83 83 82 82 82 81 81 81 79 78 76 73 71 69 69 68 68 68 66 64 62 61 61
179 180 183 181 178 180 179 172 174 176 170 161 160 163 158 150 146 147 147 142 137 136 135 132 128 125 122 121 119 115 109 105 103 101 99 96 92 88 83 78 74 69 67 67 68 68 68 68 68 67 68 71 73 75 77 80 81 82 84 85 85 83 82 82 82 81 80 80 79 79 78 77 76 73 70 66 64 64 64 65 64 62 59 58 58
181 178 180 180 178 181 179 173 174 174 168 161 161 164 158 149 147 148 149 145 141 140 139 136 133 129 126 122 117 115 114 111 108 103 99 95 91 88 84 80 76 72 70 69 69 69 68 69 70 70 70 71 73 75 79 83 85 85 85 84 83 81 80 80 79 78 79 78 76 76 75 74 72 70 68 64 61 58 58 59 59 59 57 55 55
186 178 178 180 179 182 180 174 174 173 167 162 162 166 160 151 147 148 150 147 144 143 142 140 137 134 130 126 120 116 114 112 110 106 100 94 92 89 86 83 80 76 73 71 70 69 68 69 70 71 71 72 73 75 78 82 84 86 86 85 83 81 80 79 76 76 77 75 73 72 71 67 64 61 60 58 56 53 52 52 52 52 52 52 51
191 180 178 180 181 183 180 175 175 173 167 163 164 167 161 153 149 148 151 150 147 146 145 143 141 139 135 130 125 120 117 114 110 106 101 98 96 91 87 85 84 80 76 72 71 69 68 68 68 70 71 71 72 73 74 76 78 82 85 85 85 83 82 78 74 75 75 72 69 67 64 60 57 54 51 49 48 47 47 46 45 45 45 46 47
194 181 178 180 183 185 181 176 176 173 168 165 167 168 164 158 153 151 153 152 151 149 147 144 141 140 138 133 128 124 120 116 112 105 100 99 97 92 88 86 84 83 79 75 71 69 68 67 66 66 67 67 66 66 65 65 65 68 73 79 82 82 82 78 75 74 73 70 66 62 59 56 52 48 44 41 39 38 38 38 37 38 37 38 39
193 181 178 181 184 187 183 177 176 176 171 168 169 170 167 163 157 155 155 156 155 153 148 145 140 136 135 134 130 126 122 119 114 105 101 100 96 92 89 85 82 80 79 77 73 69 67 66 63 61 61 60 59 57 56 54 54 52 53 59 66 74 76 75 73 73 73 70 66 63 59 53 47 40 35 31 29 28 27 28 29 31 31 31 31
191 181 178 183 186 188 185 179 178 179 175 172 173 174 171 167 163 160 160 159 159 158 152 146 140 136 133 131 130 127 124 120 114 108 106 102 97 93 90 86 81 76 74 74 72 69 65 63 60 57 55 54 51 49 47 46 46 46 44 44 44 48 54 57 56 55 61 64 64 62 57 49 38 29 23 19 19 17 16 17 20 23 25 26 26
189 179 179 184 186 188 187 181 180 183 180 176 175 176 175 172 169 166 166 165 165 165 160 155 149 142 136 133 131 129 125 120 115 112 110 106 99 94 89 85 81 76 71 69 70 67 63 61 57 54 52 49 47 43 41 41 42 42 41 40 38 34 28 20 11 7 18 38 51 52 45 36 24 13 8 7 7 7 6 8 12 15 18 20 22
190 179 179 185 187 189 190 184 183 184 183 179 177 179 179 178 176 174 173 171 169 168 166 165 160 153 146 139 135 133 128 120 115 114 113 109 101 95 90 85 83 81 74 68 67 63 58 56 54 50 48 45 42 40 37 36 37 37 36 35 33 31 28 22 14 6 353 337 354 15 12 7 0 356 354 355 357 357 357 1 5 8 11 14 18
192 179 178 184 188 191 192 188 186 186 184 182 181 182 182 182 181 179 177 174 170 167 165 165 164 160 155 149 143 138 130 121 116 115 113 110 106 99 93 90 88 87 80 68 63 57 51 48 47 46 44 41 37 34 33 32 32 33 32 31 30 28 26 22 18 14 8 342 301 306 325 335 338 341 343 345 347 348 350 355 359 2 5 8 12
194 180 176 181 188 192 195 192 187 186 188 185 183 184 183 183 183 181 180 178 174 169 165 162 161 161 157 153 147 141 132 124 120 118 115 114 112 108 99 93 91 87 80 68 58 50 44 40 38 38 37 35 31 28 27 27 27 28 27 28 29 27 25 23 21 18 16 8 334 304 310 321 327 332 336 340 342 345 349 353 357 1 3 5 6
195 182 176 180 188 191 196 196 190 188 189 187 185 185 184 184 184 183 182 180 177 173 169 164 162 162 159 155 150 144 136 130 127 124 123 122 119 114 105 96 91 86 79 69 58 47 39 33 27 25 26 27 24 21 19 20 22 24 24 25 27 27 25 24 24 25 23 17 7 345 331 331 334 339 344 348 351 354 357 0 2 4 5 5 5
199 185 179 182 187 191 197 197 193 191 190 187 186 185 184 184 183 183 182 181 180 177 173 169 166 166 165 162 157 149 142 137 134 132 131 129 125 120 110 99 94 88 81 69 57 46 37 29 21 16 15 16 16 13 12 12 15 19 21 23 25 26 25 24 24 25 26 22 16 9 2 356 356 357 1 3 4 6 7 7 7 6 5 5 5
208 190 182 183 187 191 197 197 195 193 191 188 187 185 184 183 182 182 182 181 181 177 175 173 171 170 168 165 160 154 149 145 144 143 142 139 137 131 117 102 90 82 74 63 49 37 28 21 15 13 11 10 11 9 7 6 8 12 15 19 23 24 24 24 23 22 22 22 20 15 10 8 7 8 9 9 9 9 7 4 2 1 1 1 1
217 197 184 183 187 192 196 197 196 194 193 190 187 186 185 183 181 180 180 180 180 178 177 175 174 173 171 168 163 159 156 153 153 153 153 154 155 153 131 98 80 74 63 47 30 17 11 7 6 8 9 9 9 7 5 3 3 5 8 12 17 21 21 22 23 22 18 16 15 13 9 5 3 3 3 3 3 3 0 357 355 354 354 356 357
221 204 189 185 188 192 196 196 196 195 195 192 189 187 186 183 182 181 180 180 179 179 178 176 175 173 172 170 167 166 164 163 163 164 165 173 183 194 193 142 60 47 24 7 359 357 358 358 360 4 7 8 8 6 3 359 359 359 1 5 8 12 15 17 20 21 19 15 11 9 5 1 358 355 354 355 355 355 353 351 350 350 350 351 353
Height
11009 11008 11007 11005 11004 11002 11000 10999 10998 10996 10995 10994 10992 10991 10990 10988 10987 10985 10983 10982 10980 10978 10977 10975 10973 10971 10970 10968 10967 10965 10962 10959 10957 10954 10952 10950 10948 10946 10944 10943 10942 10941 10941 10941 10941 10941 10941 10941 10942 10942 10942 10942 10942 10941 10941 10940 10939 10939 10939 10939 10939 10939 10938 10938 10937 10937 10937 10936 10936 10936 10936 10936 10936 10936 10936 10936 10935 10935 10935 10935 10934 10934 10934 10934 10935
11008 11007 11006 11004 11002 11000 10999 10997 10996 10995 10993 10992 10991 10990 10988 10987 10986 10984 10982 10981 10979 10978 10977 10975 10973 10972 10971 10969 10967 10965 10962 10960 10957 10955 10952 10950 10948 10946 10944 10943 10942 10941 10941 10941 10941 10941 10941 10941 10942 10942 10942 10942 10942 10941 10940 10940 10939 10939 10939 10939 10939 10939 10938 10938 10938 10938 10937 10937 10937 10936 10937 10937 10937 10936 10936 10936 10936 10936 10935 10935 10934 10934 10934 10934 10935
11006 11005 11004 11003 11001 10999 10997 10996 10994 10993 10992 10991 10990 10988 10987 10986 10984 10983 10981 10980 10979 10978 10977 10975 10974 10972 10971 10969 10967 10965 10963 10960 10958 10956 10953 10951 10948 10946 10945 10943 10943 10942 10942 10942 10942 10941 10941 10942 10942 10942 10942 10942 10942 10941 10940 10940 10940 10940 10940 10939 10939 10939 10938 10938 10938 10938 10938 10937 10937 10937 10937 10937 10937 10937 10937 10937 10936 10936 10935 10935 10934 10934 10934 10934 10935
11004 11003 11002 11001 11000 10998 10996 10994 10993 10991 10990 10989 10988 10987 10986 10984 10983 10982 10981 10980 10979 10978 10976 10975 10974 10973 10971 10969 10967 10965 10963 10961 10959 10956 10954 10952 10949 10947 10946 10944 10944 10943 10943 10942 10942 10942 10942 10942 10942 10942 10942 10942 10942 10941 10941 10940 10940 10940 10939 10939 10938 10938 10939 10938 10938 10937 10937 10937 10937 10937 10937 10937 10937 10937 10937 10937 10937 10936 10936 10935 10934 10934 10934 10934 10935
11003 11002 11001 11000 10999 10997 10995 10993 10992 10990 10989 10988 10987 10986 10984 10983 10982 10981 10980 10980 10979 10978 10976 10975 10974 10973 10971 10969 10967 10966 10964 10962 10959 10957 10955 10953 10951 10949 10947 10946 10945 10945 10944 10943 10943 10942 10942 10942 10942 10942 10942 10942 10941 10941 10940 10940 10940 10939 10939 10938 10938 10938 10938 10937 10937 10937 10937 10937 10937 10937 10937 10937 10937 10937 10937 10937 10937 10937 10936 10935 10935 10934 10934 10934 10934
11002 11001 11000 10999 10998 10996 10994 10993 10991 10990 10988 10987 10986 10985 10983 10982 10982 10981 10980 10980 10979 10978 10976 10975 10975 10973 10971 10969 10968 10966 10965 10962 10960 10958 10957 10954 10952 10950 10949 10948 10947 10946 10946 10945 10945 10944 10943 10943 10943 10943 10942 10941 10941 10940 10939 10939 10938 10938 10937 10936 10937 10937 10937 10936 10937 10937 10937 10937 10937 10937 10937 10937 10937 10937 10937 10937 10937 10937 10937 10936 10935 10935 10934 10934 10934
11002 11001 10999 10998 10997 10995 10994 10992 10990 10989 10988 10987 10985 10984 10983 10982 10981 10981 10981 10980 10979 10978 10977 10976 10975 10973 10971 10970 10968 10967 10965 10963 10962 10960 10958 10956 10954 10952 10951 10950 10949 10949 10948 10948 10947 10946 10945 10945 10944 10943 10942 10942 10941 10940 10939 10938 10937 10936 10935 10934 10935 10935 10935 10935 10936 10936 10937 10937 10937 10937 10937 10937 10937 10937 10937 10937 10937 10937 10937 10936 10936 10935 10935 10935 10934
11001 11000 10999 10998 10996 10994 10993 10991 10990 10988 10987 10986 10984 10983 10983 10982 10982 10981 10981 10980 10979 10978 10977 10976 10975 10973 10972 10970 10968 10967 10966 10964 10963 10961 10960 10957 10956 10954 10953 10952 10951 10951 10950 10949 10949 10948 10947 10946 10945 10944 10943 10942 10941 10939 10938 10937 10935 10934 10933 10932 10933 10933 10934 10935 10935 10936 10936 10937 10937 10937 10937 10937 10937 10937 10937 10937 10937 10938 10938 10937 10936 10936 10936 10935 10935
11001 11000 10998 10997 10995 10994 10992 10991 10989 10988 10986 10985 10984 10983 10983 10983 10982 10981 10981 10980 10979 10979 10978 10977 10975 10973 10972 10970 10969 10967 10966 10965 10964 10962 10961 10959 10957 10956 10955 10954 10953 10953 10952 10951 10950 10949 10948 10947 10947 10946 10944 10943 10941 10939 10938 10936 10934 10932 10931 10931 10931 10932 10933 10934 10935 10936 10936 10937 10938 10938 10938 10937 10937 10937 10937 10937 10938 10938 10938 10938 10937 10936 10936 10936 10935
11000 10999 10998 10997 10995 10993 10992 10990 10988 10987 10986 10985 10984 10984 10984 10983 10982 10982 10981 10981 10980 10979 10979 10977 10975 10973 10972 10970 10969 10968 10966 10965 10964 10963 10961 10960 10958 10958 10957 10956 10955 10954 10953 10952 10951 10950 10949 10949 10948 10946 10945 10943 10941 10939 10937 10935 10933 10931 10929 10929 10930 10931 10932 10934 10935 10936 10936 10937 10937 10938 10938 10937 10937 10937 10937 10937 10938 10938 10938 10938 10938 10937 10937 10936 10935
10999 10998 10997 10996 10994 10993 10991 10989 10988 10987 10986 10984 10984 10984 10984 10983 10982 10982 10982 10981 10981 10980 10979 10977 10975 10973 10972 10970 10969 10968 10967 10966 10965 10964 10962 10961 10960 10959 10959 10957 10957 10956 10954 10953 10952 10951 10950 10949 10948 10946 10945 10943 10941 10938 10936 10933 10930 10928 10928 10928 10929 10931 10932 10933 10935 10936 10936 10937 10937 10937 10938 10937 10937 10937 10937 10937 10938 10939 10938 10939 10939 10938 10938 10937 10936
10998 10998 10997 10996 10994 10992 10991 10989 10988 10986 10985 10985 10984 10984 10984 10983 10983 10983 10983 10982 10981 10980 10979 10977 10975 10974 10972 10971 10970 10968 10967 10967 10966 10965 10964 10963 10963 10961 10960 10959 10958 10957 10956 10954 10953 10952 10951 10949 10948 10947 10945 10943 10941 10939 10936 10932 10929 10927 10927 10928 10929 10931 10932 10933 10935 10936 10937 10937 10937 10937 10937 10938 10938 10938 10937 10938 10938 10939 10939 10939 10939 10939 10939 10938 10937
10998 10997 10997 10995 10993 10992 10990 10989 10987 10986 10985 10985 10985 10984 10984 10983 10983 10983 10983 10982 10981 10980 10979 10977 10976 10974 10973 10972 10970 10969 10969 10968 10968 10967 10966 10965 10964 10963 10962 10961 10959 10958 10957 10955 10954 10953 10952 10950 10949 10948 10946 10945 10943 10940 10937 10933 10930 10928 10929 10930 10931 10932 10933 10934 10935 10937 10937 10937 10936 10936 10937 10938 10938 10937 10937 10938 10938 10939 10939 10939 10940 10940 10939 10939 10938
10997 10996 10996 10994 10992 10991 10990 10988 10987 10986 10985 10985 10985 10984 10984 10983 10984 10984 10983 10982 10982 10981 10979 10978 10976 10975 10974 10973 10972 10971 10970 10970 10969 10969 10968 10967 10965 10964 10963 10962 10960 10959 10958 10956 10955 10954 10953 10952 10950 10949 10948 10946 10944 10942 10939 10935 10933 10931 10931 10932 10933 10933 10934 10935 10935 10936 10937 10936 10935 10936 10937 10937 10937 10937 10937 10937 10938 10939 10939 10939 10940 10940 10940 10939 10939
10996 10995 10995 10993 10992 10991 10989 10988 10987 10986 10985 10985 10985 10984 10984 10984 10985 10984 10983 10983 10983 10981 10980 10979 10978 10977 10975 10974 10973 10973 10972 10972 10971 10970 10969 10968 10967 10965 10964 10963 10962 10961 10959 10958 10957 10955 10954 10953 10952 10950 10949 10947 10945 10943 10941 10938 10936 10935 10934 10934 10935 10936 10936 10937 10936 10936 10936 10936 10936 10936 10937 10937 10937 10937 10937 10938 10938 10938 10939 10939 10939 10940 10940 10939 10939
10996 10995 10994 10993 10991 10990 10988 10987 10986 10986 10986 10985 10985 10985 10984 10985 10985 10985 10984 10984 10983 10982 10981 10980 10979 10978 10977 10976 10975 10975 10974 10974 10973 10972 10970 10969 10968 10967 10966 10965 10964 10962 10961 10960 10958 10957 10956 10954 10953 10951 10950 10948 10946 10945 10943 10941 10939 10938 10937 10937 10937 10938 10938 10938 10938 10937 10937 10937 10937 10937 10937 10937 10937 10937 10937 10938 10938 10938 10939 10939 10939 10939 10939 10939 10939
10995 10995 10994 10992 10990 10989 10988 10987 10987 10986 10986 10986 10985 10985 10985 10986 10986 10985 10985 10985 10984 10983 10982 10981 10980 10979 10978 10978 10977 10976 10976 10975 10974 10973 10972 10971 10970 10969 10968 10966 10965 10964 10963 10961 10960 10958 10957 10955 10954 10952 10951 10949 10948 10946 10945 10943 10942 10941 10940 10940 10939 10939 10939 10939 10938 10938 10938 10938 10938 10937 10937 10937 10937 10937 10937 10937 10938 10938 10938 10938 10939 10939 10939 10939 10938
10995 10994 10993 10991 10990 10988 10988 10987 10987 10987 10986 10986 10986 10985 10986 10987 10987 10986 10986 10985 10984 10984 10983 10982 10981 10981 10980 10979 10978 10978 10977 10976 10976 10975 10973 10972 10971 10970 10969 10968 10966 10965 10964 10962 10961 10960 10958 10956 10955 10953 10952 10951 10949 10948 10947 10945 10945 10944 10943 10942 10941 10941 10940 10939 10938 10938 10938 10938 10937 10937 10937 10937 10937 10937 10937 10937 10937 10937 10938 10938 10938 10938 10938 10938 10938
10994 10993 10992 10991 10989 10988 10988 10988 10987 10987 10987 10986 10986 10986 10987 10987 10987 10987 10986 10986 10985 10984 10984 10983 10982 10982 10981 10980 10980 10979 10979 10978 10977 10976 10975 10974 10973 10971 10970 10969 10967 10966 10965 10964 10962 10961 10959 10958 10956 10955 10953 10952 10951 10950 10948 10947 10947 10946 10945 10944 10943 10942 10941 10940 10940 10939 10938 10937 10937 10936 10937 10937 10937 10937 10937 10937 10937 10937 10937 10937 10937 10937 10938 10938 10938
10993 10992 10991 10990 10989 10988 10988 10988 10987 10987 10987 10986 10986 10987 10988 10988 10987 10987 10987 10986 10985 10985 10984 10984 10983 10983 10982 10981 10981 10981 10980 10979 10978 10977 10977 10975 10974 10973 10972 10970 10969 10967 10966 10965 10963 10962 10960 10959 10958 10956 10955 10954 10952 10951 10950 10949 10948 10947 10946 10946 10945 10944 10943 10942 10941 10940 10939 10938 10938 10938 10937 10937 10938 10937 10937 10937 10937 10937 10937 10937 10937 10937 10938 10938 10938
10991 10991 10990 10989 10988 10988 10988 10987 10987 10987 10987 10987 10987 10988 10988 10988 10988 10987 10987 10987 10986 10985 10985 10984 10984 10984 10983 10983 10982 10982 10982 10981 10980 10979 10978 10977 10976 10974 10973 10972 10970 10968 10967 10966 10965 10963 10961 10960 10959 10958 10957 10955 10954 10953 10952 10951 10950 10949 10948 10947 10946 10945 10945 10944 10943 10942 10941 10941 10940 10940 10939 10939 10939 10938 10938 10937 10937 10937 10937 10937 10937 10937 10937 10938 10938
10990 10989 10989 10988 10987 10987 10988 10987 10987 10987 10987 10987 10988 10988 10989 10988 10988 10988 10988 10987 10986 10986 10986 10985 10985 10985 10984 10984 10983 10983 10983 10982 10982 10981 10980 10979 10977 10976 10975 10973 10972 10970 10968 10967 10966 10964 10963 10962 10961 10960 10958 10957 10956 10955 10955 10953 10952 10951 10950 10949 10948 10947 10947 10946 10945 10944 10943 10943 10942 10942 10941 10941 10940 10940 10939 10938 10937 10937 10937 10936 10936 10936 10936 10937 10937
10988 10988 10988 10987 10987 10987 10987 10987 10987 10987 10987 10987 10988 10989 10989 10989 10989 10989 10988 10988 10987 10987 10986 10986 10986 10986 10986 10985 10985 10985 10984 10984 10983 10983 10982 10980 10979 10978 10977 10975 10973 10971 10970 10968 10967 10966 10964 10963 10962 10961 10961 10960 10959 10958 10957 10955 10954 10952 10951 10951 10949 10948 10948 10947 10946 10945 10945 10944 10944 10943 10943 10942 10942 10941 10940 10939 10938 10938 10937 10937 10937 10936 10936 10936 10936
10987 10987 10987 10986 10986 10987 10987 10987 10987 10987 10987 10988 10989 10989 10989 10989 10989 10989 10989 10988 10988 10987 10987 10987 10987 10987 10987 10987 10986 10986 10986 10985 10985 10985 10984 10982 10980 10979 10978 10976 10975 10973 10971 10970 10969 10967 10966 10965 10964 10964 10963 10962 10961 10959 10958 10957 10956 10955 10953 10952 10951 10950 10949 10948 10947 10947 10946 10945 10945 10944 10944 10943 10943 10942 10941 10940 10939 10939 10938 10938 10937 10937 10937 10937 10936
10985 10985 10986 10986 10986 10986 10986 10987 10987 10987 10988 10989 10989 10990 10990 10990 10990 10990 10989 10989 10989 10988 10988 10988 10988 10988 10988 10988 10988 10987 10987 10987 10986 10986 10985 10983 10982 10981 10979 10977 10976 10974 10973 10972 10971 10969 10968 10967 10966 10965 10965 10964 10963 10961 10960 10959 10958 10956 10955 10954 10953 10952 10950 10949 10948 10948 10947 10946 10946 10945 10945 10944 10944 10943 10942 10941 10940 10939 10939 10939 10938 10938 10937 10937 10937
10984 10984 10985 10985 10986 10986 10986 10987 10987 10987 10988 10989 10990 10990 10991 10990 10990 10990 10990 10989 10989 10989 10989 10989 10989 10989 10989 10989 10989 10989 10989 10988 10988 10987 10986 10984 10983 10982 10981 10979 10977 10976 10974 10974 10973 10971 10970 10968 10967 10967 10966 10966 10965 10963 10962 10961 10960 10958 10957 10956 10955 10953 10952 10951 10950 10949 10948 10947 10947 10946 10945 10945 10945 10944 10943 10942 10941 10940 10939 10939 10939 10939 10938 10938 10938
10983 10984 10984 10985 10986 10986 10987 10987 10987 10988 10988 10990 10990 10991 10991 10991 10991 10991 10990 10990 10990 10990 10989 10989 10989 10990 10990 10990 10990 10991 10990 10990 10989 10988 10987 10986 10985 10984 10983 10981 10979 10978 10976 10975 10975 10974 10972 10971 10970 10969 10969 10968 10967 10966 10964 10963 10962 10961 10960 10958 10957 10955 10954 10953 10951 10950 10949 10949 10948 10947 10946 10946 10945 10945 10944 10943 10942 10941 10940 10939 10939 10939 10939 10939 10939
10982 10983 10984 10984 10985 10986 10987 10987 10987 10988 10989 10990 10991 10991 10992 10992 10991 10991 10991 10991 10991 10991 10990 10990 10990 10991 10991 10991 10992 10992 10991 10991 10990 10989 10988 10987 10987 10986 10985 10983 10981 10980 10979 10978 10976 10975 10975 10973 10972 10971 10971 10971 10970 10968 10967 10966 10965 10964 10962 10960 10959 10958 10956 10955 10953 10952 10951 10950 10949 10949 10948 10947 10946 10946 10945 10944 10943 10942 10941 10941 10940 10940 10940 10940 10940
10982 10983 10983 10984 10985 10986 10987 10987 10987 10988 10990 10991 10991 10992 10992 10992 10992 10992 10992 10992 10992 10991 10991 10991 10991 10992 10992 10992 10993 10993 10992 10992 10991 10990 10990 10989 10989 10988 10986 10985 10984 10983 10982 10980 10979 10978 10977 10975 10974 10975 10975 10974 10972 10971 10970 10968 10967 10966 10964 10963 10961 10960 10959 10957 10956 10954 10953 10952 10951 10950 10949 10949 10948 10947 10947 10946 10945 10944 10942 10942 10941 10942 10942 10941 10941
10981 10982 10983 10984 10985 10986 10987 10987 10988 10989 10990 10991 10992 10993 10993 10993 10993 10992 10992 10992 10992 10992 10992 10992 10992 10992 10993 10993 10994 10994 10993 10993 10993 10992 10991 10991 10990 10989 10988 10987 10986 10986 10985 10982 10980 10979 10978 10977 10978 10979 10978 10975 10974 10973 10971 10970 10969 10968 10967 10966 10964 10963 10961 10960 10958 10957 10955 10954 10954 10953 10951 10950 10950 10949 10948 10948 10947 10945 10944 10943 10943 10943 10943 10943 10942
10981 10982 10983 10984 10985 10986 10987 10987 10988 10989 10991 10992 10993 10993 10994 10994 10993 10993 10993 10993 10993 10993 10993 10994 10994 10993 10994 10994 10995 10995 10995 10994 10994 10993 10993 10992 10991 10991 10990 10989 10988 10988 10986 10983 10982 10981 10981 10981 10982 10981 10979 10977 10975 10974 10973 10973 10972 10971 10970 10969 10967 10966 10964 10963 10961 10959 10958 10957 10957 10955 10954 10953 10952 10951 10950 10949 10948 10947 10946 10945 10945 10945 10944 10944 10943
10981 10982 10983 10984 10984 10986 10987 10988 10989 10990 10991 10992 10993 10994 10994 10994 10994 10994 10994 10994 10994 10994 10994 10995 10995 10995 10995 10996 10996 10996 10995 10995 10994 10994 10994 10993 10992 10992 10992 10991 10990 10989 10988 10986 10985 10984 10985 10986 10984 10982 10980 10979 10977 10977 10976 10975 10974 10974 10974 10972 10971 10969 10968 10966 10964 10963 10962 10961 10960 10959 10957 10956 10955 10954 10953 10952 10951 10949 10948 10947 10947 10946 10946 10945 10944
10980 10981 10982 10983 10984 10986 10987 10988 10989 10991 10992 10993 10994 10995 10995 10995 10994 10995 10995 10995 10995 10996 10996 10996 10996 10996 10997 10997 10997 10997 10996 10996 10995 10995 10995 10994 10994 10994 10993 10993 10993 10992 10990 10989 10989 10988 10988 10988 10986 10984 10983 10981 10980 10980 10979 10978 10978 10978 10977 10976 10975 10973 10972 10970 10968 10967 10966 10965 10964 10962 10961 10960 10959 10958 10957 10955 10954 10952 10951 10950 10949 10949 10948 10946 10945
10979 10980 10982 10983 10984 10986 10987 10988 10989 10991 10993 10994 10995 10995 10995 10995 10995 10996 10996 10996 10997 10997 10997 10997 10998 10998 10998 10999 10999 10998 10998 10997 10997 10997 10997 10997 10996 10996 10995 10995 10995 10994 10993 10992 10991 10991 10990 10989 10988 10987 10986 10985 10984 10983 10982 10982 10982 10981 10981 10980 10978 10977 10976 10974 10973 10971 10970 10968 10967 10966 10965 10964 10963 10962 10961 10960 10958 10956 10955 10954 10953 10952 10951 10949 10948
10978 10979 10981 10983 10984 10986 10987 10988 10990 10992 10993 10995 10995 10996 10996 10996 10996 10997 10997 10998 10998 10998 10998 10999 10999 10999 11000 11000 11000 11000 10999 10999 10999 10999 10999 10999 10998 10998 10997 10997 10997 10996 10995 10994 10994 10993 10992 10990 10989 10989 10989 10988 10987 10986 10986 10986 10986 10985 10984 10983 10982 10981 10980 10978 10977 10976 10974 10972 10971 10970 10968 10967 10966 10966 10965 10964 10962 10960 10959 10958 10957 10956 10954 10953 10951
10977 10978 10981 10983 10984 10986 10988 10989 10990 10992 10994 10996 10996 10997 10997 10997 10998 10998 10999 10999 10999 10999 11000 11000 11001 11001 11001 11002 11002 11001 11001 11001 11001 11001 11001 11000 11000 11000 10999 10998 10998 10998 10997 10997 10996 10995 10994 10993 10992 10992 10992 10991 10990 10990 10990 10990 10990 10989 10988 10987 10986 10985 10983 10982 10980 10979 10977 10976 10975 10973 10972 10971 10969 10968 10967 10966 10965 10964 10962 10961 10960 10958 10957 10956 10954
10977 10978 10980 10983 10985 10987 10988 10989 10991 10993 10995 10996 10997 10998 10998 10999 10999 11000 11000 11001 11001 11001 11001 11002 11002 11002 11003 11003 11003 11003 11003 11002 11002 11002 11002 11002 11001 11001 11000 10999 11000 11000 11000 11000 10999 10997 10997 10996 10995 10995 10995 10994 10993 10993 10993 10993 10993 10992 10992 10991 10989 10988 10986 10985 10983 10982 10980 10979 10978 10976 10975 10974 10972 10971 10970 10968 10967 10966 10965 10964 10963 10961 10960 10958 10957
10977 10977 10980 10982 10985 10987 10988 10989 10991 10993 10995 10997 10998 10999 10999 11000 11001 11001 11002 11002 11002 11003 11003 11003 11003 11004 11004 11004 11005 11004 11004 11004 11004 11004 11003 11003 11003 11002 11002 11001 11001 11002 11002 11002 11001 11000 10999 10998 10998 10997 10997 10997 10996 10996 10996 10996 10996 10995 10995 10994 10992 10991 10989 10987 10986 10984 10983 10981 10980 10979 10977 10976 10975 10974 10972 10971 10970 10968 10967 10966 10965 10964 10962 10961 10959
10977 10977 10979 10982 10985 10987 10988 10990 10992 10994 10996 10997 10999 11000 11001 11001 11002 11003 11004 11004 11004 11005 11005 11005 11005 11005 11006 11006 11006 11006 11006 11006 11006 11006 11005 11005 11004 11004 11004 11003 11003 11004 11004 11003 11003 11002 11002 11001 11000 11000 10999 10999 10999 10999 10999 10999 10999 10998 10997 10996 10995 10994 10992 10990 10988 10986 10985 10983 10982 10981 10979 10978 10977 10976 10975 10973 10972 10971 10969 10968 10967 10965 10964 10963 10961
10977 10977 10979 10982 10985 10987 10989 10990 10992 10994 10996 10998 10999 11000 11001 11002 11003 11004 11005 11006 11006 11006 11007 11007 11007 11007 11007 11007 11007 11008 11008 11008 11008 11008 11007 11007 11006 11006 11005 11005 11005 11005 11005 11005 11005 11005 11004 11003 11003 11003 11002 11001 11001 11001 11001 11001 11001 11000 11000 10999 10998 10996 10994 10993 10991 10989 10987 10985 10984 10982 10981 10980 10979 10978 10976 10975 10974 10972 10971 10970 10969 10967 10966 10964 10963
10976 10977 10979 10982 10985 10988 10990 10991 10993 10995 10997 10998 11000 11001 11002 11003 11004 11005 11006 11007 11007 11008 11008 11008 11008 11008 11009 11009 11009 11009 11009 11009 11009 11009 11009 11008 11008 11008 11007 11007 11007 11008 11007 11007 11006 11007 11006 11005 11005 11005 11004 11003 11003 11003 11003 11003 11002 11002 11001 11000 10999 10998 10996 10995 10993 10991 10989 10987 10985 10984 10982 10981 10980 10979 10978 10976 10975 10974 10973 10971 10970 10969 10967 10966 10964
10976 10977 10979 10983 10986 10988 10990 10991 10993 10995 10997 10999 11000 11001 11003 11004 11005 11006 11007 11008 11009 11009 11009 11010 11010 11010 11010 11010 11010 11011 11011 11011 11011 11011 11010 11010 11010 11010 11010 11009 11009 11009 11009 11008 11008 11008 11008 11007 11007 11007 11006 11006 11005 11005 11005 11004 11004 11003 11002 11000 10999 10998 10997 10996 10995 10993 10991 10989 10987 10985 10984 10982 10981 10980 10979 10977 10976 10975 10974 10973 10971 10970 10969 10967 10965
10976 10976 10979 10982 10985 10988 10990 10991 10993 10995 10997 10999 11001 11002 11004 11005 11006 11007 11008 11009 11009 11010 11010 11011 11011 11011 11011 11011 11012 11012 11012 11012 11012 11012 11012 11012 11012 11012 11012 11012 11011 11010 11010 11010 11009 11009 11009 11008 11008 11009 11008 11008 11007 11007 11006 11005 11004 11003 11002 11001 10999 10998 10997 10996 10994 10993 10992 10990 10989 10987 10985 10983 10982 10981 10980 10978 10977 10976 10975 10974 10973 10971 10970 10968 10967
10975 10976 10978 10982 10985 10988 10990 10992 10993 10995 10998 11000 11001 11002 11004 11005 11006 11007 11008 11009 11010 11011 11011 11012 11012 11012 11012 11012 11013 11013 11013 11013 11013 11013 11013 11013 11013 11013 11013 11013 11012 11011 11011 11011 11010 11010 11010 11009 11009 11010 11009 11009 11008 11008 11007 11006 11005 11004 11003 11001 11000 10998 10997 10995 10994 10992 10992 10990 10989 10987 10986 10985 10983 10982 10981 10979 10978 10977 10976 10975 10974 10972 10971 10969 10967
10975 10975 10978 10982 10986 10988 10990 10992 10993 10996 10998 10999 11001 11002 11004 11005 11006 11007 11008 11009 11010 11011 11012 11012 11012 11013 11013 11013 11014 11014 11014 11014 11014 11014 11014 11014 11014 11014 11014 11013 11013 11013 11012 11012 11011 11011 11011 11011 11010 11010 11010 11009 11009 11009 11008 11007 11006 11005 11003 11002 11000 10999 10997 10995 10993 10992 10991 10990 10989 10988 10986 10985 10984 10983 10981 10980 10979 10978 10977 10975 10974 10973 10971 10970 10968
10975 10975 10977 10981 10985 10988 10990 10992 10993 10995 10997 10999 11001 11002 11004 11005 11006 11007 11008 11009 11010 11011 11012 11013 11013 11013 11014 11014 11014 11014 11014 11015 11015 11015 11015 11014 11015 11014 11014 11014 11014 11014 11013 11013 11012 11012 11012 11012 11012 11011 11010 11010 11009 11009 11008 11008 11007 11005 11004 11003 11001 10999 10997 10995 10993 10991 10990 10989 10988 10988 10986 10985 10984 10983 10982 10980 10979 10978 10977 10976 10975 10973 10972 10970 10969
10975 10975 10976 10980 10984 10987 10990 10991 10993 10995 10997 10999 11000 11002 11003 11004 11006 11007 11008 11009 11010 11011 11012 11013 11013 11014 11014 11014 11015 11015 11015 11015 11015 11015 11015 11015 11015 11015 11015 11015 11015 11015 11015 11014 11014 11014 11013 11013 11012 11011 11011 11010 11010 11009 11009 11008 11007 11006 11004 11003 11001 10999 10997 10996 10994 10992 10991 10989 10988 10987 10987 10985 10984 10983 10982 10981 10979 10978 10977 10976 10975 10974 10972 10971 10969
10974 10974 10975 10978 10982 10986 10989 10991 10993 10995 10996 10998 11000 11001 11003 11004 11005 11006 11008 11009 11010 11011 11012 11013 11014 11014 11014 11015 11015 11015 11015 11015 11015 11015 11016 11016 11016 11016 11016 11016 11016 11016 11015 11015 11015 11015 11014 11014 11013 11012 11011 11010 11010 11009 11009 11008 11008 11007 11005 11004 11002 10999 10998 10996 10994 10993 10991 10990 10989 10988 10987 10986 10985 10984 10983 10981 10980 10979 10977 10976 10975 10974 10973 10971 10970
10974 10973 10974 10977 10981 10984 10987 10990 10992 10994 10996 10997 10999 11000 11002 11003 11004 11006 11007 11008 11009 11010 11011 11012 11013 11014 11014 11014 11014 11014 11015 11015 11015 11015 11016 11016 11016 11016 11016 11016 11016 11016 11016 11016 11016 11015 11015 11014 11013 11012 11011 11010 11010 11009 11009 11008 11007 11006 11005 11004 11002 11000 10998 10996 10995 10993 10992 10991 10989 10988 10987 10986 10985 10984 10983 10982 10980 10979 10978 10976 10975 10973 10972 10970 10969
10973 10972 10972 10975 10979 10982 10985 10988 10991 10993 10995 10996 10998 10999 11001 11002 11004 11005 11006 11007 11009 11010 11011 11012 11013 11013 11014 11014 11014 11014 11014 11015 11015 11015 11015 11016 11016 11016 11016 11016 11016 11016 11016 11016 11016 11015 11015 11014 11014 11013 11012 11011 11010 11009 11009 11008 11007 11006 11005 11004 11002 11001 10999 10997 10995 10994 10992 10991 10990 10989 10987 10986 10985 10984 10983 10982 10980 10979 10978 10976 10974 10972 10971 10969 10968
10972 10971 10971 10973 10976 10980 10983 10987 10990 10992 10994 10995 10997 10998 11000 11001 11003 11004 11005 11006 11008 11009 11010 11011 11012 11012 11013 11013 11014 11014 11014 11014 11015 11015 11015 11015 11016 11016 11016 11016 11016 11016 11016 11015 11015 11015 11015 11014 11014 11013 11012 11011 11010 11009 11009 11008 11006 11005 11004 11003 11002 11001 10999 10998 10996 10994 10993 10991 10990 10989 10988 10987 10985 10984 10983 10981 10980 10979 10977 10976 10974 10972 10970 10968 10967